Date String (YYYY-MM-DD hh:mm:ss) UTC,Instrument flags,Ambient pressure (hPa),Sample flow (lpm),Bypass flow (lpm),Sample temperature (°C),Ambient temperature (°C),ASC tube jacket temperature (°C),LED temperature (°C),Box temperature (°C),Sample RH (%),Span deviation,Mass concentration (μg/m³),Mass concentration (μg/m³),Mass concentration (μg/m³)
DateTimeUTC,F1_M11,P_M11,Q1_M11,Q2_M11,T1_M11,T2_M11,T3_M11,T4_M11,T5_M11,U1_M11,ZSPAN_M11,X2_M11,X0_M11,X1_M11
2023-04-28 08:00:00,,0832.9,5.00,0.00,23.5,21.7,00.0,32.0,24.9,20.4,0000.0,0000.59,0001.82,0000.34
2023-04-28 08:01:00,,0832.8,5.01,0.00,23.5,21.7,00.0,32.0,24.9,20.4,0000.0,0000.67,0004.41,0000.35
2023-04-28 08:02:00,,0832.8,5.00,0.00,23.4,21.7,00.0,32.0,24.9,20.3,0000.0,0000.74,0004.65,0000.36
2023-04-28 08:03:00,,0833.0,5.00,0.00,23.4,21.7,00.0,32.0,24.9,20.3,0000.0,0000.78,0004.98,0000.35
2023-04-28 08:04:00,,0833.3,5.00,0.00,23.4,21.7,00.0,32.0,24.9,20.4,0000.0,0000.78,0006.21,0000.35
2023-04-28 08:05:00,,0833.4,5.00,0.00,23.4,21.7,00.0,32.0,24.9,20.2,0000.0,0000.77,0006.25,0000.35
2023-04-28 08:06:00,,0833.3,5.00,0.00,23.4,21.7,00.0,31.9,24.9,20.2,0000.0,0000.75,0006.10,0000.35
2023-04-28 08:07:00,,0833.1,5.01,0.00,23.4,21.8,00.0,31.9,24.9,20.3,0000.0,0000.74,0005.96,0000.35
2023-04-28 08:08:00,,0832.9,5.00,0.00,23.4,21.7,00.0,31.9,24.9,20.4,0000.0,0000.73,0005.94,0000.35
2023-04-28 08:09:00,,0832.9,5.00,0.00,23.4,21.7,00.0,31.9,24.9,20.5,0000.0,0000.68,0005.71,0000.35
2023-04-28 08:10:00,,0832.9,4.99,0.00,23.4,21.8,00.0,31.9,24.9,20.3,0000.0,0000.66,0005.41,0000.35
2023-04-28 08:11:00,,0833.0,5.00,0.00,23.4,21.8,00.0,31.9,24.9,20.2,0000.0,0000.65,0005.07,0000.35
2023-04-28 08:12:00,,0832.9,5.00,0.00,23.4,21.8,00.0,31.9,24.9,20.1,0000.0,0000.59,0002.62,0000.35
2023-04-28 08:13:00,,0832.9,5.00,0.00,23.4,21.8,00.0,31.9,24.9,20.3,0000.0,0000.53,0002.37,0000.34
2023-04-28 08:14:00,,0833.0,5.00,0.00,23.4,21.8,00.0,31.9,24.9,20.3,0000.0,0000.50,0002.04,0000.35
2023-04-28 08:15:00,,0833.0,5.00,0.00,23.4,21.8,00.0,31.9,25.0,20.2,0000.0,0000.53,0000.91,0000.36
2023-04-28 08:16:00,,0833.3,5.00,0.00,23.4,21.8,00.0,31.9,25.0,20.3,0000.0,0000.53,0001.86,0000.36
2023-04-28 08:17:00,,0833.3,5.00,0.00,23.4,21.9,00.0,31.9,25.0,20.2,0000.0,0000.54,0002.01,0000.36
2023-04-28 08:18:00,,0833.0,5.00,0.00,23.4,21.9,00.0,31.9,25.0,20.0,0000.0,0000.55,0002.05,0000.37
2023-04-28 08:19:00,,0833.1,4.99,0.00,23.4,21.9,00.0,31.9,24.9,20.1,0000.0,0000.58,0002.15,0000.38
2023-04-28 08:20:00,,0833.1,5.00,0.00,23.4,21.9,00.0,31.9,25.0,20.0,0000.0,0000.59,0002.18,0000.39
2023-04-28 08:21:00,,0833.0,5.00,0.00,23.4,21.9,00.0,31.9,25.0,19.9,0000.0,0000.60,0002.18,0000.40
2023-04-28 08:22:00,,0833.1,5.00,0.00,23.4,21.9,00.0,31.8,24.9,19.7,0000.0,0000.63,0002.34,0000.42
2023-04-28 08:23:00,,0833.2,5.00,0.00,23.4,21.9,00.0,31.8,24.9,19.0,0000.0,0000.67,0002.42,0000.45
2023-04-28 08:24:00,,0833.0,5.01,0.00,23.4,21.9,00.0,31.8,24.9,18.6,0000.0,0000.73,0002.55,0000.49
2023-04-28 08:25:00,,0833.1,5.00,0.00,23.4,21.8,00.0,31.8,24.9,18.5,0000.0,0000.78,0002.60,0000.52
2023-04-28 08:26:00,,0833.0,5.00,0.00,23.4,21.8,00.0,31.8,24.9,18.5,0000.0,0000.82,0002.66,0000.56
2023-04-28 08:27:00,,0833.0,5.00,0.00,23.4,21.8,00.0,31.8,24.9,18.4,0000.0,0000.85,0001.85,0000.60
2023-04-28 08:28:00,,0833.5,4.99,0.00,23.4,21.8,00.0,31.8,24.9,18.3,0000.0,0000.92,0001.64,0000.64
2023-04-28 08:29:00,,0833.3,5.00,0.00,23.4,21.7,00.0,31.8,24.9,18.1,0000.0,0000.96,0001.68,0000.67
2023-04-28 08:30:00,,0833.0,5.01,0.00,23.3,21.7,00.0,31.8,24.8,18.3,0000.0,0000.99,0001.69,0000.71
2023-04-28 08:31:00,,0833.2,5.01,0.00,23.3,21.7,00.0,31.8,24.8,18.2,0000.0,0001.00,0001.62,0000.75
2023-04-28 08:32:00,,0833.0,5.01,0.00,23.3,21.6,00.0,31.8,24.8,18.0,0000.0,0001.02,0001.63,0000.78
2023-04-28 08:33:00,,0833.1,4.99,0.00,23.3,21.6,00.0,31.8,24.8,17.8,0000.0,0001.04,0001.61,0000.81
2023-04-28 08:34:00,,0833.1,4.99,0.00,23.3,21.6,00.0,31.7,24.7,17.5,0000.0,0001.05,0001.63,0000.83
2023-04-28 08:35:00,,0833.1,5.00,0.00,23.2,21.5,00.0,31.7,24.7,17.4,0000.0,0001.07,0001.63,0000.84
2023-04-28 08:36:00,,0833.1,5.00,0.00,23.2,21.5,00.0,31.7,24.7,17.2,0000.0,0001.07,0001.65,0000.85
2023-04-28 08:37:00,,0833.0,5.00,0.00,23.2,21.5,00.0,31.7,24.6,17.5,0000.0,0001.05,0001.59,0000.85
2023-04-28 08:38:00,,0833.0,5.00,0.00,23.2,21.5,00.0,31.7,24.6,17.7,0000.0,0001.05,0001.58,0000.86
2023-04-28 08:39:00,,0833.1,5.00,0.00,23.1,21.4,00.0,31.7,24.6,17.6,0000.0,0001.03,0002.05,0000.86
2023-04-28 08:40:00,,0833.1,5.00,0.00,23.1,21.4,00.0,31.6,24.6,17.3,0000.0,0001.03,0002.10,0000.86
2023-04-28 08:41:00,,0833.0,5.00,0.00,23.1,21.4,00.0,31.6,24.5,17.6,0000.0,0001.05,0002.32,0000.87
2023-04-28 08:42:00,,0833.1,5.01,0.00,23.1,21.4,00.0,31.6,24.5,17.6,0000.0,0001.05,0003.37,0000.87
2023-04-28 08:43:00,,0833.2,4.99,0.00,23.1,21.3,00.0,31.6,24.5,17.6,0000.0,0001.08,0003.71,0000.88
2023-04-28 08:44:00,,0833.0,5.00,0.00,23.0,21.3,00.0,31.6,24.5,17.4,0000.0,0001.12,0004.41,0000.87
2023-04-28 08:45:00,,0833.0,5.00,0.00,23.0,21.3,00.0,31.6,24.5,17.3,0000.0,0001.18,0005.21,0000.87
2023-04-28 08:46:00,,0833.0,5.00,0.00,23.0,21.3,00.0,31.5,24.4,17.8,0000.0,0001.22,0007.52,0000.87
2023-04-28 08:47:00,,0833.1,5.00,0.00,23.0,21.3,00.0,31.5,24.4,17.9,0000.0,0001.26,0007.61,0000.88
2023-04-28 08:48:00,,0833.0,5.00,0.00,23.0,21.3,00.0,31.5,24.4,17.9,0000.0,0001.30,0008.22,0000.88
2023-04-28 08:49:00,,0833.1,5.00,0.00,23.0,21.3,00.0,31.5,24.4,18.0,0000.0,0001.37,0009.05,0000.89
2023-04-28 08:50:00,,0833.2,5.00,0.00,23.0,21.3,00.0,31.5,24.5,18.1,0000.0,0001.41,0009.95,0000.89
2023-04-28 08:51:00,,0833.3,4.99,0.00,23.0,21.3,00.0,31.5,24.5,18.1,0000.0,0001.47,0010.81,0000.89
2023-04-28 08:52:00,,0833.1,4.99,0.00,22.9,21.3,00.0,31.5,24.4,18.0,0000.0,0001.51,0011.37,0000.88
2023-04-28 08:53:00,,0833.0,5.00,0.00,22.9,21.3,00.0,31.4,24.5,18.0,0000.0,0001.59,0010.90,0000.89
2023-04-28 08:54:00,,0833.1,5.00,0.00,22.9,21.3,00.0,31.4,24.4,17.6,0000.0,0001.62,0010.93,0000.89
2023-04-28 08:55:00,,0833.2,4.99,0.00,22.9,21.3,00.0,31.4,24.4,17.3,0000.0,0001.63,0010.50,0000.89
2023-04-28 08:56:00,,0833.1,5.00,0.00,22.9,21.3,00.0,31.4,24.4,17.7,0000.0,0001.58,0011.18,0000.89
2023-04-28 08:57:00,,0833.2,4.99,0.00,22.9,21.2,00.0,31.4,24.3,17.6,0000.0,0001.57,0010.23,0000.91
2023-04-28 08:58:00,,0833.2,5.00,0.00,22.9,21.2,00.0,31.4,24.3,17.2,0000.0,0001.61,0010.25,0000.92
2023-04-28 08:59:00,,0833.3,5.00,0.00,22.9,21.2,00.0,31.4,24.3,16.9,0000.0,0001.67,0009.91,0000.93
